[[{"header":{"parameterUnit":"m.s-1","parameterCategory":1,"la1":30.2991,"la2":30.254,"lo1":-89.0895,"lo2":-89.0444,"dy":0.0017,"dx":0.0017,"nx":28,"ny":28,"refTime":"2024-06-11T09:00:00:Z","depth":0,"parameterNumber":2,"parameterNumberName":"U-component_of_WINDS"},"data":[0,0,0,0,0,0,0,0,0,0,0,0,0,0,0,0,0,0,0,0,0,0,0,0,0,0,0,0,0,0,0,0,0,0,0,0,0,0,0,0,0,0,0,0,0,0,0,0,0,0,0,0,0,0,0,0,0,0,-2.1118,-2.1118,0,-2.1142,-2.1143,-2.1143,-2.1073,-2.1071,-2.1069,-2.1067,-2.1096,-2.1098,-2.1101,0,0,0,0,0,0,0,0,0,0,0,0,0,-2.1014,-2.1017,-2.1118,-2.1118,-2.1118,-2.1142,-2.1143,-2.1143,-2.1073,-2.1071,-2.1068,-2.1066,-2.1095,-2.1098,-2.1101,0,0,0,0,0,0,0,0,0,0,0,0,0,-2.1051,-2.1017,-2.1118,-2.1087,-2.1084,-2.1142,-2.1143,-2.1143,-2.1074,-2.1071,-2.1068,-2.1065,-2.1094,-2.1098,-2.1102,-2.1193,0,0,-2.1115,-2.1116,0,0,0,0,0,0,0,0,-2.1049,-2.1055,-2.1091,-2.1089,-2.1086,-2.1101,-2.1117,-2.116,-2.1075,-2.1078,-2.1067,-2.1063,-2.11,-2.1104,-2.1116,-2.1194,-2.1195,-2.1115,-2.1118,-2.1119,-2.1121,0,0,0,0,0,0,0,-2.1047,-2.1054,-2.1128,-2.1091,-2.1089,-2.1072,-2.1074,-2.1125,-2.1107,-2.1077,-2.1072,-2.1076,-2.1099,-2.1112,-2.1116,-2.1196,-2.1115,-2.1119,-2.1121,-2.1123,-2.1351,-2.1355,0,0,0,0,0,0,-2.1048,-2.1052,-2.1127,-2.1128,-2.1059,-2.1077,-2.1079,-2.11,-2.1106,-2.1104,-2.1079,-2.1073,-2.1106,-2.1111,-2.1117,-2.1225,-2.1119,-2.1123,-2.1126,-2.1348,-2.1352,-2.1356,0,0,0,0,0,0,-2.1046,-2.1055,-2.1126,-2.1089,-2.1097,-2.1082,-2.1106,-2.1102,-2.1115,-2.1107,-2.1104,-2.1095,-2.1104,-2.1111,-2.1174,-2.1225,-2.1125,-2.1129,-2.1344,-2.1349,-2.1354,-2.1441,0,0,0,0,0,0,-2.1043,-2.1055,-2.1088,-2.109,-2.1099,-2.1183,-2.1109,-2.1105,-2.1122,-2.1114,-2.1122,-2.112,-2.1102,-2.1169,-2.1179,-2.1229,-2.1132,-2.1339,-2.1346,-2.1352,-2.1434,-2.1449,-2.1462,0,0,0,0,0,-2.104,-2.1113,-2.109,-2.11,-2.114,-2.1185,-2.1191,-2.1167,-2.1126,-2.1161,-2.1156,-2.112,-2.1217,-2.1176,-2.1186,-2.1239,-2.1336,-2.1344,-2.1352,-2.1428,-2.1446,-2.1461,0,0,0,0,0,0,-2.1118,-2.1112,-2.1088,-2.1163,-2.1175,-2.1174,-2.1216,-2.1187,-2.1212,-2.1204,-2.1174,-2.1176,-2.1246,-2.1248,-2.1202,-2.1327,-2.127,-2.128,-2.1324,-2.1341,-2.1355,-2.1354,-2.1136,0,0,0,0,0,-2.1144,-2.118,-2.1173,-2.124,-2.1248,-2.1231,-2.125,-2.123,-2.1242,-2.1247,-2.1247,-2.1261,-2.1295,-2.1318,-2.1348,-2.1433,-2.1435,-2.1474,-2.1488,-2.15,-2.151,-2.1557,-2.1575,-2.1382,-2.1382,-2.1382,0,0,-2.1199,-2.12,-2.1224,-2.1256,-2.1263,-2.1303,-2.1236,-2.128,-2.131,-2.1254,-2.1315,-2.1315,-2.1329,-2.1404,-2.1437,-2.1408,-2.1563,-2.151,-2.1519,-2.1523,-2.1567,-2.1585,-2.1601,-2.1388,-2.1387,-2.1386,0,0,-2.1318,-2.1322,-2.1379,-2.1387,-2.1398,-2.1387,-2.1401,-2.1403,-2.1401,-2.1461,-2.1421,-2.1455,-2.1513,-2.1525,-2.1539,-2.1663,-2.1632,-2.1674,-2.1748,-2.1793,-2.1809,-2.1822,-2.1868,-2.1885,-2.1683,-2.1684,-2.1684,0,-2.1385,-2.1442,-2.1412,-2.146,-2.1476,-2.1426,-2.1484,-2.1494,-2.1515,-2.1528,-2.1495,-2.1567,-2.1573,-2.1651,-2.1681,-2.1693,-2.1709,-2.1674,-2.1809,-2.1822,-2.1834,-2.1878,-2.1895,-2.1689,-2.1688,-2.1688,-2.1687,0,-2.1524,-2.1564,-2.1609,-2.163,-2.165,-2.1703,-2.1683,-2.1708,-2.1686,-2.1678,-2.1741,-2.1745,-2.1776,-2.1793,-2.1772,-2.1868,-2.185,-2.1813,-2.1755,-2.1858,-2.1899,-2.1915,-2.1696,-2.1694,-2.1693,-2.1691,0,0,-2.1696,-2.1699,-2.1716,-2.1726,-2.1734,-2.1765,-2.1816,-2.1845,-2.1868,-2.1884,-2.1927,-2.1977,-2.1943,-2.1959,-2.1939,-2.1979,-2.2079,-2.1937,-2.1937,-2.1965,-2.2187,-2.2217,-2.2236,-2.2057,-2.206,-2.2063,-2.2187,0,-2.1815,-2.1902,-2.1877,-2.1964,-2.2001,-2.1954,-2.1999,-2.201,-2.2004,-2.2035,-2.2029,-2.2066,-2.2017,-2.2026,-2.2063,-2.2059,-2.2124,-2.2049,-2.2099,-2.2101,-2.21,-2.2257,-2.2289,-2.2405,-2.2202,-2.2205,-2.2207,0,-2.1967,-2.1988,-2.2079,-2.2082,-2.2097,-2.2137,-2.2162,-2.2192,-2.2204,-2.2197,-2.2214,-2.2187,-2.2238,-2.2178,-2.2249,-2.2199,-2.2218,-2.2219,-2.2223,-2.2228,-2.2162,-2.227,-2.2442,-2.246,-2.2231,-2.2229,-2.2227,0,-2.2086,-2.2137,-2.2198,-2.2207,-2.2212,-2.2241,-2.2245,-2.2253,-2.2272,-2.2294,-2.2307,-2.2335,-2.2352,-2.2374,-2.2356,-2.2313,-2.2431,-2.2368,-2.2428,-2.2429,-2.2457,-2.2456,-2.2637,-2.2465,-2.2465,-2.2465,-2.2464,0,-2.2223,-2.2281,-2.2252,-2.229,-2.2354,-2.2324,-2.2389,-2.2387,-2.2395,-2.2432,-2.2393,-2.243,-2.2401,-2.2436,-2.2421,-2.2483,-2.249,-2.2487,-2.2483,-2.2492,-2.2493,-2.2506,-2.2498,-2.2469,-2.2468,-2.2467,-2.2467,0,-2.2368,-2.235,-2.2414,-2.2413,-2.2414,-2.2461,-2.246,-2.2496,-2.2487,-2.2535,-2.2545,-2.2531,-2.2569,-2.2552,-2.2592,-2.2583,-2.2663,-2.2647,-2.266,-2.2656,-2.2718,-2.2713,-2.2916,-2.2941,-2.2751,-2.2753,-2.2754,0,-2.2458,-2.2502,-2.2505,-2.2527,-2.2532,-2.2568,-2.2588,-2.256,-2.2583,-2.2599,-2.2633,-2.2668,-2.2695,-2.2758,-2.2753,-2.2784,-2.277,-2.2838,-2.2774,-2.2782,-2.2773,-2.2772,-2.2777,-2.2852,-2.2854,-2.2856,-2.2858,0,-2.2621,-2.261,-2.2639,-2.2665,-2.2689,-2.2709,-2.2725,-2.2746,-2.2719,-2.2746,-2.2784,-2.2805,-2.2845,-2.2881,-2.2909,-2.2913,-2.2882,-2.2877,-2.2893,-2.2904,-2.291,-2.291,-2.2697,-2.2873,-2.2872,-2.2871,-2.287,-2.2869,-2.2743,-2.278,-2.2788,-2.2822,-2.2831,-2.2847,-2.2881,-2.2875,-2.2906,-2.2937,-2.2919,-2.2964,-2.2975,-2.3008,-2.3017,-2.3053,-2.3026,-2.3048,-2.3054,-2.3061,-2.307,-2.2902,-2.3057,-2.3057,-2.3056,-2.3056,-2.3056,0,-2.2906,-2.2908,-2.2939,-2.2963,-2.299,-2.2956,-2.2972,-2.2998,-2.3038,-2.305,-2.3076,-2.3121,-2.3155,-2.3152,-2.3183,-2.3213,-2.32,-2.3223,-2.3221,-2.3223,-2.3091,-2.3076,-2.3233,-2.3233,-2.3233,-2.3233,-2.3233,-2.3233,-2.2994,-2.3055,-2.3045,-2.311,-2.3112,-2.3156,-2.3168,-2.3184,-2.3193,-2.3245,-2.3272,-2.3269,-2.3276,-2.3307,-2.3338,-2.3336,-2.335,-2.3379,-2.3372,-2.325,-2.3232,-2.3216,-2.3201,-2.3382,-2.3382,-2.3502,-2.3503,-2.3503]},{"header":{"parameterUnit":"m.s-1","parameterCategory":1,"la1":30.2991,"la2":30.254,"lo1":-89.0895,"lo2":-89.0444,"dy":0.0017,"dx":0.0017,"nx":28,"ny":28,"refTime":"2024-06-11T09:00:00:Z","depth":0,"parameterNumber":3,"parameterNumberName":"V-component_of_WINDS"},"data":[0,0,0,0,0,0,0,0,0,0,0,0,0,0,0,0,0,0,0,0,0,0,0,0,0,0,0,0,0,0,0,0,0,0,0,0,0,0,0,0,0,0,0,0,0,0,0,0,0,0,0,0,0,0,0,0,0,0,-3.5285,-3.5285,0,-3.5304,-3.5304,-3.5304,-3.5251,-3.5249,-3.5247,-3.5246,-3.5264,-3.5266,-3.5268,0,0,0,0,0,0,0,0,0,0,0,0,0,-3.5199,-3.5201,-3.5285,-3.5285,-3.5285,-3.5304,-3.5304,-3.5304,-3.5251,-3.5249,-3.5247,-3.5245,-3.5263,-3.5266,-3.5268,0,0,0,0,0,0,0,0,0,0,0,0,0,-3.5229,-3.5202,-3.5285,-3.5261,-3.5259,-3.5304,-3.5304,-3.5305,-3.5251,-3.5249,-3.5246,-3.5244,-3.5262,-3.5265,-3.5268,-3.5337,0,0,-3.5278,-3.5279,0,0,0,0,0,0,0,0,-3.5228,-3.5232,-3.5264,-3.5263,-3.5261,-3.5272,-3.5281,-3.5315,-3.5252,-3.5254,-3.5246,-3.5243,-3.5269,-3.5271,-3.528,-3.5338,-3.5339,-3.5278,-3.528,-3.5281,-3.5282,0,0,0,0,0,0,0,-3.5226,-3.5231,-3.5292,-3.5265,-3.5262,-3.5248,-3.525,-3.5287,-3.5275,-3.5254,-3.525,-3.5253,-3.5267,-3.5277,-3.528,-3.5339,-3.5278,-3.5281,-3.5282,-3.5284,-3.5452,-3.5455,0,0,0,0,0,0,-3.5227,-3.523,-3.5292,-3.5293,-3.5238,-3.5252,-3.5254,-3.5271,-3.5275,-3.5273,-3.5255,-3.525,-3.5273,-3.5277,-3.528,-3.536,-3.5281,-3.5284,-3.5286,-3.545,-3.5453,-3.5456,0,0,0,0,0,0,-3.5225,-3.5233,-3.5291,-3.526,-3.5267,-3.5256,-3.5276,-3.5273,-3.5283,-3.5276,-3.5273,-3.5268,-3.5271,-3.5276,-3.5323,-3.536,-3.5285,-3.5288,-3.5446,-3.5451,-3.5454,-3.552,0,0,0,0,0,0,-3.5223,-3.5233,-3.5259,-3.5261,-3.5269,-3.5334,-3.5278,-3.5275,-3.5288,-3.5282,-3.5287,-3.5285,-3.527,-3.5319,-3.5326,-3.5363,-3.529,-3.5443,-3.5448,-3.5453,-3.5515,-3.5526,-3.5536,0,0,0,0,0,-3.522,-3.5277,-3.5261,-3.5269,-3.5302,-3.5337,-3.534,-3.5322,-3.5292,-3.5318,-3.5313,-3.5285,-3.5355,-3.5324,-3.5332,-3.537,-3.5441,-3.5447,-3.5453,-3.551,-3.5524,-3.5535,0,0,0,0,0,0,-3.528,-3.5277,-3.5259,-3.5319,-3.5328,-3.5327,-3.536,-3.5338,-3.5356,-3.5349,-3.5325,-3.5327,-3.5378,-3.5378,-3.5344,-3.5436,-3.5392,-3.54,-3.5433,-3.5446,-3.5457,-3.5455,-3.5293,0,0,0,0,0,-3.53,-3.5329,-3.5325,-3.5378,-3.5383,-3.5371,-3.5385,-3.537,-3.5379,-3.5383,-3.5381,-3.539,-3.5414,-3.543,-3.5452,-3.5515,-3.5514,-3.5544,-3.5555,-3.5563,-3.557,-3.5602,-3.5615,-3.5475,-3.5475,-3.5475,0,0,-3.5342,-3.5344,-3.5364,-3.539,-3.5395,-3.5425,-3.5375,-3.5409,-3.543,-3.5388,-3.5432,-3.5431,-3.5439,-3.5494,-3.5518,-3.5496,-3.5609,-3.5571,-3.5578,-3.558,-3.561,-3.5623,-3.5635,-3.5479,-3.5478,-3.5478,0,0,-3.5433,-3.5438,-3.5482,-3.5488,-3.5497,-3.5488,-3.5499,-3.5501,-3.5499,-3.5543,-3.5512,-3.5536,-3.5578,-3.5585,-3.5594,-3.5686,-3.5661,-3.5694,-3.5748,-3.578,-3.5791,-3.58,-3.5832,-3.5844,-3.5701,-3.5701,-3.5701,0,-3.5483,-3.5527,-3.5507,-3.5543,-3.5555,-3.5518,-3.5561,-3.5568,-3.5584,-3.5593,-3.5568,-3.5619,-3.5622,-3.5677,-3.57,-3.5708,-3.5719,-3.5693,-3.5791,-3.58,-3.5809,-3.5839,-3.5851,-3.5705,-3.5705,-3.5704,-3.5704,0,-3.5589,-3.562,-3.5654,-3.567,-3.5685,-3.5725,-3.571,-3.5728,-3.5711,-3.5705,-3.5749,-3.5751,-3.5772,-3.5784,-3.5768,-3.5837,-3.5823,-3.5795,-3.5751,-3.5827,-3.5855,-3.5866,-3.5711,-3.5709,-3.5708,-3.5707,0,0,-3.5718,-3.5722,-3.5735,-3.5741,-3.5747,-3.577,-3.5808,-3.5828,-3.5844,-3.5855,-3.5885,-3.5921,-3.5895,-3.5905,-3.589,-3.5917,-3.5989,-3.5886,-3.5886,-3.5904,-3.6063,-3.6084,-3.6097,-3.5972,-3.5974,-3.5976,-3.6062,0,-3.5807,-3.5872,-3.5854,-3.5918,-3.5945,-3.591,-3.5942,-3.5949,-3.5944,-3.5966,-3.5959,-3.5985,-3.5949,-3.5955,-3.598,-3.5975,-3.602,-3.5968,-3.5999,-3.6,-3.5997,-3.6112,-3.6134,-3.6215,-3.6073,-3.6075,-3.6076,0,-3.592,-3.5936,-3.6003,-3.6003,-3.6014,-3.6044,-3.606,-3.6082,-3.6089,-3.6083,-3.6094,-3.6072,-3.6108,-3.6064,-3.6112,-3.6077,-3.6088,-3.6087,-3.609,-3.6091,-3.6042,-3.6116,-3.6241,-3.6253,-3.6093,-3.6092,-3.6091,0,-3.6007,-3.6045,-3.6089,-3.6096,-3.6098,-3.6119,-3.6121,-3.6125,-3.6138,-3.6153,-3.6161,-3.6179,-3.6189,-3.6203,-3.6187,-3.6157,-3.6237,-3.6192,-3.6232,-3.6233,-3.625,-3.6249,-3.6378,-3.6259,-3.6259,-3.6259,-3.6258,0,-3.6108,-3.615,-3.6128,-3.6155,-3.6201,-3.6179,-3.6224,-3.6222,-3.6226,-3.6252,-3.6222,-3.6247,-3.6224,-3.6246,-3.6233,-3.6274,-3.6279,-3.6275,-3.6271,-3.6277,-3.6278,-3.6284,-3.6278,-3.6262,-3.6261,-3.626,-3.626,0,-3.6212,-3.62,-3.6245,-3.6244,-3.6244,-3.6278,-3.6275,-3.63,-3.6292,-3.6325,-3.6331,-3.6319,-3.6343,-3.6328,-3.6353,-3.6345,-3.6398,-3.6386,-3.6396,-3.6392,-3.6433,-3.6429,-3.657,-3.6586,-3.6458,-3.6459,-3.646,0,-3.6277,-3.6309,-3.631,-3.6325,-3.6329,-3.6353,-3.6366,-3.6346,-3.636,-3.637,-3.6393,-3.6415,-3.6431,-3.6472,-3.6465,-3.6483,-3.6471,-3.6519,-3.6474,-3.6479,-3.6471,-3.6469,-3.6472,-3.6528,-3.653,-3.6531,-3.6532,0,-3.6394,-3.6386,-3.6405,-3.6423,-3.6439,-3.6452,-3.6462,-3.6476,-3.6456,-3.6473,-3.6498,-3.651,-3.6535,-3.6557,-3.6573,-3.6574,-3.6549,-3.6547,-3.6557,-3.6563,-3.6567,-3.6564,-3.642,-3.6543,-3.6542,-3.6541,-3.6541,-3.654,-3.648,-3.6505,-3.651,-3.6533,-3.6538,-3.6548,-3.6571,-3.6566,-3.6586,-3.6605,-3.6591,-3.662,-3.6624,-3.6643,-3.6647,-3.6668,-3.6649,-3.6664,-3.6668,-3.6671,-3.6677,-3.6564,-3.6671,-3.6671,-3.6671,-3.667,-3.667,0,-3.6594,-3.6595,-3.6616,-3.6631,-3.6649,-3.6624,-3.6634,-3.665,-3.6676,-3.6682,-3.6699,-3.6726,-3.6747,-3.6741,-3.676,-3.6778,-3.6767,-3.6783,-3.6782,-3.6782,-3.6694,-3.6683,-3.6792,-3.6792,-3.6792,-3.6792,-3.6792,-3.6792,-3.6655,-3.6697,-3.6689,-3.6733,-3.6733,-3.6761,-3.6768,-3.6777,-3.6782,-3.6814,-3.6831,-3.6827,-3.6828,-3.6846,-3.6864,-3.6861,-3.6869,-3.6889,-3.6883,-3.68,-3.6788,-3.6777,-3.6766,-3.6891,-3.6892,-3.6969,-3.697,-3.6971]}]]